GW1402 Weather Reports


Display with metric or nautical units.
time (UTC)temp
F
wind
direction
speed
MPH
gust
MPH
rain 1hr
in
rain 24hr
in
rain mn
in
humidity
%
barometer
mb
20260502195229 71 106 0.0 1.0 0.00 0.00 0.00 21 1428.8
20260502194316 71 64 3.0 4.0 0.00 0.00 0.00 23 1429.1
20260502193316 71 62 5.0 6.0 0.00 0.00 0.00 22 1429.4
20260502192317 71 38 2.0 4.0 0.00 0.00 0.00 25 1429.6
20260502190416 71 140 3.0 4.0 0.00 0.00 0.00 22 1430.0
20260502185422 69 315 0.0 3.0 0.00 0.00 0.00 21 1430.4
20260502185317 69 313 3.0 5.0 0.00 0.00 0.00 22 1430.3
20260502184316 68 67 0.0 2.0 0.00 0.00 0.00 23 1430.6
20260502183315 68 45 3.0 5.0 0.00 0.00 0.00 24 1430.8
20260502182317 67 37 3.0 5.0 0.00 0.00 0.00 27 1431.0
20260502182217 67 25 4.0 5.0 0.00 0.00 0.00 27 1430.9
20260502181218 67 11 3.0 5.0 0.00 0.00 0.00 28 1431.0
20260502180315 66 46 6.0 8.0 0.00 0.00 0.00 33 1430.9
20260502170517 62 90 0.0 1.0 0.00 0.00 0.00 33 1431.8
20260502163617 58 64 5.0 6.0 0.00 0.00 0.00 43 1431.8
20260502161814 58 45 1.0 2.0 0.00 0.00 0.00 43 1432.3
20260502152015 51 43 3.0 5.0 0.00 0.00 0.00 54 1432.1
20260502130217 33 202 1.0 1.0 0.00 0.00 0.00 76 1430.7
20260502123215 33 270 0.0 1.0 0.00 0.00 0.00 80 1430.5
20260502122216 33 270 1.0 3.0 0.00 0.00 0.00 80 1430.4
20260502121215 33 270 1.0 2.0 0.00 0.00 0.00 78 1430.3
20260502121117 33 270 0.0 1.0 0.00 0.00 0.00 78 1430.3
20260502120215 34 315 2.0 4.0 0.00 0.00 0.00 76 1430.5
20260502115233 34 337 2.0 3.0 0.00 0.00 0.00 76 1430.1
20260502114315 35 315 1.0 2.0 0.00 0.00 0.00 76 1430.2
20260502113317 36 315 3.0 3.0 0.00 0.00 0.00 75 1430.3
20260502112318 35 315 0.0 0.0 0.00 0.00 0.00 76 1430.0
20260502111316 35 315 0.0 1.0 0.00 0.00 0.00 75 1430.2
20260502110316 36 45 2.0 2.0 0.00 0.00 0.00 73 1430.3
20260502105316 36 112 0.0 0.0 0.00 0.00 0.00 73 1430.6
20260502104316 36 112 2.0 2.0 0.00 0.00 0.00 76 1430.6
20260502103318 35 135 3.0 3.0 0.00 0.00 0.00 78 1430.7
20260502102415 36 135 3.0 3.0 0.00 0.00 0.00 73 1430.9
20260502101433 37 22 0.0 0.0 0.00 0.00 0.00 72 1430.9
20260502100516 38 22 0.0 0.0 0.00 0.00 0.00 70 1430.9
20260502071117 41 157 2.0 3.0 0.00 0.00 0.00 56 1431.3
20260502070116 42 157 4.0 5.0 0.00 0.00 0.00 59 1431.4
20260502065116 42 202 3.0 3.0 0.00 0.00 0.00 57 1431.2
20260502064215 42 202 2.0 3.0 0.00 0.00 0.00 57 1431.3
20260502063236 42 202 3.0 3.0 0.00 0.00 0.00 56 1431.4
20260502061415 44 225 4.0 4.0 0.00 0.00 0.00 52 1431.5
20260502060417 44 180 4.0 4.0 0.00 0.00 0.00 51 1431.6
20260502055435 44 180 4.0 5.0 0.00 0.00 0.00 51 1431.5
20260502054521 44 315 0.0 1.0 0.00 0.00 0.00 51 1431.6
20260502052621 47 247 3.0 4.0 0.00 0.00 0.00 44 1431.4
20260502051622 48 247 4.0 4.0 0.00 0.00 0.00 42 1431.7
20260502050637 50 202 2.0 2.0 0.00 0.00 0.00 38 1431.6
20260502045619 51 135 0.0 0.0 0.00 0.00 0.00 34 1431.6
20260502045537 51 135 0.0 1.0 0.00 0.00 0.00 34 1431.6
20260502044519 52 179 5.0 5.0 0.00 0.00 0.00 33 1431.7
20260502043519 51 112 6.0 7.0 0.00 0.00 0.00 35 1431.5
20260502042519 50 112 6.0 7.0 0.00 0.00 0.00 37 1431.5
20260502041520 51 111 5.0 6.0 0.00 0.00 0.00 36 1431.2
20260502040519 50 112 6.0 7.0 0.00 0.00 0.00 38 1431.0
20260502035520 51 90 4.0 5.0 0.00 0.00 0.00 37 1431.1
20260502033521 50 135 6.0 7.0 0.00 0.00 0.00 40 1431.0
20260502032520 50 112 6.0 6.0 0.00 0.00 0.00 40 1430.6
20260502031519 53 122 5.0 7.0 0.00 0.00 0.00 34 1430.6
20260502025521 59 67 2.0 3.0 0.00 0.00 0.00 23 1430.5
20260502023620 60 22 0.0 1.0 0.00 0.00 0.00 17 1430.6
20260502022621 61 22 1.0 1.0 0.00 0.00 0.00 17 1430.7
20260502022521 61 22 1.0 2.0 0.00 0.00 0.00 16 1430.6
20260502021520 61 22 1.0 1.0 0.00 0.00 0.00 18 1430.6
20260502021420 61 22 1.0 1.0 0.00 0.00 0.00 18 1430.5
20260502020519 61 22 0.0 1.0 0.00 0.00 0.00 24 1430.6
20260502015518 63 22 1.0 2.0 0.00 0.00 0.00 22 1430.6
20260502014520 64 22 2.0 3.0 0.00 0.00 0.00 22 1430.3
20260502013521 64 22 2.0 2.0 0.00 0.00 0.00 23 1430.5
20260502012619 64 22 3.0 4.0 0.00 0.00 0.00 24 1430.7
20260502011620 65 22 2.0 4.0 0.00 0.00 0.00 25 1430.7
20260502010620 66 20 3.0 4.0 0.00 0.00 0.00 21 1430.7
20260502005621 67 22 0.0 1.0 0.00 0.00 0.00 19 1430.9
20260502004719 68 360 1.0 2.0 0.00 0.00 0.00 17 1430.9
20260502003818 68 360 3.0 4.0 0.00 0.00 0.00 16 1430.8
20260502002820 68 44 1.0 2.0 0.00 0.00 0.00 20 1430.8
20260502001918 69 39 3.0 4.0 0.00 0.00 0.00 17 1431.0
20260502001819 69 45 3.0 4.0 0.00 0.00 0.00 16 1430.9
20260502000819 69 14 2.0 4.0 0.00 0.00 0.00 15 1431.1
20260501235823 68 342 1.0 5.0 0.00 0.00 0.00 16 1431.0
20260501234819 68 14 4.0 6.0 0.00 0.00 0.00 17 1431.3
20260501233719 69 292 1.0 4.0 0.00 0.00 0.00 17 1431.0
20260501232719 69 346 2.0 2.0 0.00 0.00 0.00 16 1431.3
20260501230821 69 356 4.0 6.0 0.00 0.00 0.00 16 1431.2
20260501225820 69 347 2.0 4.0 0.00 0.00 0.00 16 1431.6
20260501223820 67 30 2.0 5.0 0.00 0.00 0.00 19 1431.5
20260501222821 68 1 0.0 1.0 0.00 0.00 0.00 17 1431.8
20260501221820 68 356 4.0 7.0 0.00 0.00 0.00 18 1431.9
20260501220822 68 315 0.0 2.0 0.00 0.00 0.00 19 1432.1
20260501214820 67 342 1.0 5.0 0.00 0.00 0.00 19 1432.7
20260501213819 67 28 3.0 4.0 0.00 0.00 0.00 19 1432.6
20260501212822 66 3 2.0 3.0 0.00 0.00 0.00 22 1432.7
20260501211822 65 290 0.0 4.0 0.00 0.00 0.00 20 1432.8
20260501210820 65 130 3.0 5.0 0.00 0.00 0.00 21 1433.1
20260501205820 65 43 1.0 3.0 0.00 0.00 0.00 21 1433.2
20260501204820 64 18 6.0 8.0 0.00 0.00 0.00 22 1433.1
20260501203918 65 60 3.0 5.0 0.00 0.00 0.00 23 1433.3
20260501202921 65 358 2.0 6.0 0.00 0.00 0.00 21 1433.3
20260501201920 64 20 5.0 6.0 0.00 0.00 0.00 24 1433.4
20260501200018 64 15 4.0 6.0 0.00 0.00 0.00 22 1433.6